sat.trackr.live / text

‹ back to catalog

STARLINK-36637

NORAD 67633 · 2026-020S

PAYLOAD ACTIVE UNKNOWN

§ Identity

Operator
Country
US
Launch date
2026-01-30
Launch site
AFETR
Launch vehicle
Mass (kg)
RCS (m²)

Purposes: comms

External: N2YO · Heavens-Above · Gunter

§ Orbital elements

Epoch: 2026-05-25T01:25:55.983936Z

Period
94.27 min
Inclination
43.0015°
Eccentricity
0.0000998
Mean motion
15.27596022 rev/d
Perigee alt
482.3 km
Apogee alt
483.7 km
Semi-major
6,861.1 km
B*
5.5642e-4
RAAN
68.4611°
Arg perigee
283.6162°
Mean anomaly
76.4579°
Rev number
1,779

§ Raw data

STARLINK-366371 67633U 26020S   26145.05967574  .00015088  00000+0  55642-3 0  99922 67633  43.0015  68.4611 0000998 283.6162  76.4579 15.27596022 17791

JSON: /api/v1/satellites/67633 · /tle

For live sub-satellite position, see the globe view (requires WebGL).

§ Visibility from observer

Set your observer location to see the next 7 days of passes ≥ 10°. The values pass through the URL so the page stays shareable.

No JS? Fill the form by hand. The geolocation button needs JavaScript.